Weather History for Volk, WI

Change the Weather History Date:

Friday, January 17, 2014

  Actual Average Record
Temperature  
Mean Temperature 8 °F -  
Max Temperature 17 °F 20 °F - (-1)
Min Temperature -5 °F 9 °F - (-1)
Degree Days  
Heating Degree Days 58    
Moisture  
Dew Point 5 °F    
Average Humidity 78    
Maximum Humidity 92    
Minimum Humidity 63    
Precipitation  
Precipitation 0.03 in - - ()
Snow  
Snow 0.00 in - - ()
Snow Depth 8.00 in    
Sea Level Pressure  
Sea Level Pressure 29.83 in    
Wind  
Wind Speed 13 mph (WNW)    
Max Wind Speed 17 mph    
Max Gust Speed 23 mph    
Visibility 8 miles    
Events Snow    
Averages and records for this station are not official NWS values.
T = Trace of Precipitation, MM = Missing Value Source: NWS Daily Summary

Daily Weather History Graph

Daily Weather History Graph

Search for Another Location

Airport:

Trip Planner

Search our weather history database for the weather conditions in past years. The results will help you decide how hot, cold, wet, or windy it might be!

Date:

Astronomy

Jan. 17, 2014 Rise Set
Actual Time 7:31 AM CST 4:51 PM CST
Civil Twilight 6:59 AM CST 5:23 PM CST
Nautical Twilight 6:23 AM CST 5:58 PM CST
Astronomical Twilight 5:49 AM CST 6:33 PM CST
Moon 6:43 PM CST (1/17) 7:54 AM CST (1/17)
Length of Visible Light 10h 24m
Length of Day
9h 20m
Full, 98% of the Moon is Illuminated
Jan 17
Full
Jan 23
Last Quarter
Jan 30
New
Feb 6
First Quarter
Feb 14
Full

Hourly Weather History & Observations

Time (CST) Temp. Windchill Dew Point Humidity Pressure Visibility Wind Dir Wind Speed Gust Speed Precip Events Conditions
12:22 AM 8.6 °F -7.7 °F 1.4 °F 73% 29.71 in 10.0 mi West 13.8 mph - N/A Snow Light Snow
12:27 AM 8.6 °F -7.7 °F 1.4 °F 73% 29.71 in 10.0 mi West 13.8 mph - N/A   Overcast
12:43 AM 8.6 °F -7.7 °F 1.4 °F 73% 29.71 in 10.0 mi West 13.8 mph - N/A Snow Light Snow
12:58 AM 9.0 °F -7.3 °F 1.4 °F 71% 29.77 in 10.0 mi West 13.8 mph - - Snow Light Snow
1:28 AM 8.6 °F -6.3 °F 1.4 °F 73% 29.72 in 10.0 mi West 11.5 mph - N/A   Overcast
1:39 AM 8.6 °F -8.9 °F 1.4 °F 73% 29.72 in 10.0 mi West 16.1 mph - N/A Snow Light Snow
1:54 AM 8.6 °F -7.7 °F 1.4 °F 73% 29.72 in 10.0 mi WNW 13.8 mph - N/A Snow Light Snow
1:58 AM 9.0 °F -8.5 °F 1.9 °F 73% 29.78 in 10.0 mi West 16.1 mph 21.9 mph - Snow Light Snow
2:03 AM 8.6 °F -7.0 °F 1.4 °F 73% 29.72 in 10.0 mi West 12.7 mph 21.9 mph N/A Snow Light Snow
2:13 AM 8.6 °F -6.3 °F 1.4 °F 73% 29.72 in 10.0 mi West 11.5 mph 20.7 mph N/A Snow Light Snow
2:28 AM 8.6 °F -7.0 °F 3.2 °F 79% 29.73 in 10.0 mi West 12.7 mph - N/A Snow Light Snow
2:58 AM 9.0 °F -5.9 °F 3.0 °F 77% 29.80 in 10.0 mi West 11.5 mph - - Snow Light Snow
3:13 AM 8.6 °F -7.7 °F 3.2 °F 79% 29.74 in 9.0 mi West 13.8 mph - N/A Snow Light Snow
3:33 AM 8.6 °F -7.0 °F 3.2 °F 79% 29.74 in 6.0 mi West 12.7 mph - N/A Snow Light Snow
3:53 AM 8.6 °F -6.3 °F 5.0 °F 85% 29.74 in 5.0 mi WNW 11.5 mph - N/A Snow Light Snow
3:58 AM 9.1 °F -6.4 °F 4.5 °F 81% 29.80 in 5.0 mi West 12.7 mph - - Snow Light Snow
4:18 AM 8.6 °F -6.3 °F 5.0 °F 85% 29.75 in 4.0 mi West 11.5 mph - N/A Snow Light Snow
4:33 AM 8.6 °F -7.0 °F 5.0 °F 85% 29.74 in 3.0 mi West 12.7 mph - N/A Snow Light Snow
4:48 AM 8.6 °F -7.7 °F 5.0 °F 85% 29.74 in 4.0 mi West 13.8 mph - N/A Snow Light Snow
4:58 AM 9.7 °F -6.3 °F 5.7 °F 84% 29.81 in 4.0 mi West 13.8 mph - - Snow Light Snow
5:08 AM 10.4 °F -4.1 °F 6.8 °F 85% 29.75 in 5.0 mi West 11.5 mph - N/A Snow Light Snow
5:13 AM 10.4 °F -4.1 °F 6.8 °F 85% 29.75 in 5.0 mi West 11.5 mph - N/A Snow Light Snow
5:53 AM 10.4 °F -4.8 °F 6.8 °F 85% 29.76 in 2.5 mi West 12.7 mph - N/A Snow Light Snow
5:58 AM 10.4 °F -5.4 °F 7.0 °F 86% 29.83 in 2.5 mi West 13.8 mph - - Snow Light Snow
6:08 AM 10.4 °F -4.1 °F 6.8 °F 85% 29.76 in 2.0 mi WNW 11.5 mph - N/A Snow Light Snow
6:23 AM 10.4 °F -5.4 °F 8.6 °F 92% 29.76 in 2.5 mi West 13.8 mph - N/A Snow Light Snow
6:28 AM 10.4 °F -4.8 °F 6.8 °F 85% 29.77 in 2.5 mi West 12.7 mph - N/A Snow Light Snow
6:33 AM 10.4 °F -4.8 °F 8.6 °F 92% 29.77 in 3.0 mi West 12.7 mph - N/A Snow Light Snow
6:58 AM 11.7 °F -3.2 °F 8.2 °F 86% 29.83 in 5.0 mi WNW 12.7 mph - - Snow Light Snow
7:03 AM 12.2 °F -3.1 °F 8.6 °F 85% 29.77 in 6.0 mi WNW 13.8 mph - N/A Snow Light Snow
7:13 AM 12.2 °F -3.1 °F 8.6 °F 85% 29.78 in 8.0 mi WNW 13.8 mph - N/A Snow Light Snow
7:23 AM 12.2 °F -2.5 °F 8.6 °F 85% 29.78 in 10.0 mi WNW 12.7 mph - N/A Snow Light Snow
7:53 AM 12.2 °F -4.3 °F 6.8 °F 79% 29.80 in 10.0 mi WNW 16.1 mph - N/A Snow Light Snow
7:58 AM 12.2 °F -3.1 °F 6.8 °F 79% 29.87 in 10.0 mi WNW 13.8 mph 21.9 mph N/A Snow Light Snow
8:23 AM 12.2 °F -2.5 °F 6.8 °F 79% 29.81 in 10.0 mi WNW 12.7 mph - N/A   Overcast
8:43 AM 12.2 °F -4.8 °F 6.8 °F 79% 29.82 in 10.0 mi WNW 17.3 mph 21.9 mph N/A   Overcast
8:58 AM 12.2 °F -4.3 °F 6.8 °F 79% 29.90 in 10.0 mi WNW 16.1 mph 23.0 mph N/A Snow Light Snow
9:29 AM 12.2 °F -1.8 °F 6.8 °F 79% 29.84 in 3.0 mi WNW 11.5 mph 21.9 mph N/A Snow Light Snow
9:58 AM 12.2 °F -2.5 °F 6.8 °F 79% 29.91 in 3.0 mi WNW 12.7 mph - N/A Snow Light Snow
10:59 AM 14.0 °F -2.0 °F 6.8 °F 73% 29.93 in 7.0 mi WNW 16.1 mph - N/A Snow Light Snow
11:58 AM 17.6 °F 5.7 °F 8.6 °F 68% 29.91 in 10.0 mi NW 10.4 mph - N/A   Mostly Cloudy
12:33 PM 17.6 °F 3.7 °F 8.6 °F 68% 29.85 in 10.0 mi WNW 13.8 mph - N/A   Overcast
12:58 PM 17.6 °F 4.3 °F 6.8 °F 63% 29.91 in 10.0 mi WNW 12.7 mph - N/A   Mostly Cloudy
1:28 PM 17.6 °F 2.7 °F 6.8 °F 63% 29.85 in 10.0 mi NNW 16.1 mph 19.6 mph N/A Snow Light Snow
1:30 PM 17.6 °F 3.7 °F 8.6 °F 68% 29.85 in 10.0 mi NNW 13.8 mph - N/A   Mostly Cloudy
1:58 PM 17.6 °F 3.7 °F 8.6 °F 68% 29.93 in 10.0 mi WNW 13.8 mph - N/A Snow Light Snow Showers
2:58 PM 15.8 °F 3.4 °F 10.4 °F 79% 29.95 in 5.0 mi WNW 10.4 mph - N/A Snow Light Snow Showers
3:58 PM 15.8 °F 2.1 °F 8.6 °F 73% 29.97 in 10.0 mi WNW 12.7 mph - N/A   Mostly Cloudy
4:12 PM 15.8 °F 1.4 °F 8.6 °F 73% 29.90 in 10.0 mi WNW 13.8 mph - N/A   Mostly Cloudy
4:58 PM 15.8 °F 5.1 °F 7.5 °F 70% 29.98 in 10.0 mi WNW 8.1 mph - -   Overcast
5:58 PM 14.0 °F 2.9 °F 5.0 °F 67% 29.99 in 10.0 mi West 8.1 mph - N/A   Mostly Cloudy
6:58 PM 9.0 °F -4.2 °F 1.9 °F 73% 30.01 in 10.0 mi West 9.2 mph - -   Clear
7:58 PM 3.7 °F -9.6 °F -1.3 °F 80% 30.00 in 10.0 mi WNW 8.1 mph - -   Clear
8:58 PM 3.4 °F -4.0 °F -0.9 °F 82% 30.00 in 10.0 mi West 3.5 mph - -   Clear
9:58 PM -1.3 °F -11.4 °F -4.5 °F 86% 30.01 in 10.0 mi West 4.6 mph - -   Clear
10:58 PM -2.7 °F - -5.6 °F 87% 29.98 in 10.0 mi Calm Calm - -   Clear
11:58 PM -5.1 °F - -8.1 °F 87% 29.95 in 10.0 mi SE 2.3 mph - -   Clear